Location: Arthurs Seat
(13.1500°N, 59.6000°W)
Time: 18:58:55
(UTC+00:00)

YAOGAN 6 - Pass Details

Date: 25 August 2019
Orbit: 466 x 505 km, 97.0° (Epoch: 18 October)

Event Time Altitude Azimuth Distance (km) Brightness Sun altitude
Rises 22:58:50 0° 180° (S) 2,488 6.0 -11.5°
Reaches altitude 10° 23:00:55 10° 186° (S) 1,613 5.1 -12.0°
Maximum altitude 23:04:14 45° 260° (W) 644 3.7 -12.8°
Drops below altitude 10° 23:07:35 10° 334° (NNW) 1,621 5.8 -13.6°
Sets 23:09:42 0° 341° (NNW) 2,502 6.7 -14.1°
